Location: Riverside Cemetery
(38.3047°N, 99.7773°W)
Time: 19:01:02
(UTC+00:00)

Cosmos 1980 Rocket - Pass Details

Date: 19 September 2020
Orbit: 831 x 848 km, 71.0° (Epoch: 22 October)

Event Time Altitude Azimuth Distance (km) Brightness Sun altitude
Exits shadow 11:04:32 22° 281° (W) 1,749 3.3 -16.4°
Maximum altitude 11:05:58 25° 303° (WNW) 1,652 3.4 -16.1°
Drops below altitude 10° 11:10:34 10° 358° (N) 2,468 4.8 -15.2°
Sets 11:13:29 0° 12° (NNE) 3,404 5.7 -14.7°
